AirNav   Duncan Aviation - Near you to keep you flying
 
 989 users online  

MN62 Quast Airport
Hutchinson, Minnesota, USA

GOING TO HUTCHINSON?


FAA INFORMATION EFFECTIVE 03 NOVEMBER 2022

Location

FAA Identifier: MN62
Lat/Long: 44-50-59.8640N 094-21-00.9370W
44-50.997733N 094-21.015617W
44.8499622,-94.3502603
(estimated)
Elevation: 1050 ft. / 320 m (estimated)
Variation: 04E (1985)
From city: 3 miles S of HUTCHINSON, MN
Time zone: UTC -6 (UTC -5 during Daylight Saving Time)
Zip code: 55350

Airport Operations

Airport use: Private use. Permission required prior to landing
Activation date: 08/1949
Control tower: no
ARTCC: MINNEAPOLIS CENTER
FSS: PRINCETON FLIGHT SERVICE STATION
Attendance: UNATNDD
Wind indicator: yes
Segmented circle: no

Airport Communications

WX AWOS-3 at HCD (1.5 nm NW): 118.525 (320-587-3343)
WX AWOS-3 at GYL (13 nm SE): 119.625 (320-864-5830)
WX AWOS-3 at LJF (16 nm NW): 119.65 (320-693-6456)

Nearby radio navigation aids

VOR radial/distance  VOR name  Freq  Var
DWNr156/14.9DARWIN VORTAC109.0007E
BDHr112/36.7WILLMAR VOR/DME113.7004E
FCMr271/38.6FLYING CLOUD VOR/DME117.7001E

Airport Services

Airframe service: NONE
Powerplant service: NONE

Runway Information

Runway E/W

Dimensions: 2300 x 100 ft. / 701 x 30 m
Surface: turf
RUNWAY E  RUNWAY W
Traffic pattern: leftleft
Obstructions: nonepline

Airport Ownership and Management from official FAA records

Ownership: Privately-owned
Owner: GEORGE QUAST
406 MAIN ST S. PO BOX 233
HUTCHINSON, MN 55350
Phone 612-587-2300
Manager: GEORGE WALTER QUAST
PO BOX 233
HUTCHINSON, MN 55350
Phone 612-587-2300

Airport Operational Statistics

Aircraft based on the field: 3
Single engine airplanes: 3
    

Additional Remarks

FOR CD CTC MINNEAPOLIS ARTCC AT 651-463-5588.

Instrument Procedures

There are no published instrument procedures at MN62.

Some nearby airports with instrument procedures:

KHCD - Hutchinson Municipal Airport-Butler Field (1 nm NW)
KGYL - Glencoe Municipal Airport (13 nm SE)
KLJF - Litchfield Municipal Airport (16 nm NW)
KMGG - Maple Lake Municipal Airport-Bill Mavencamp Sr Field (28 nm NE)
KCFE - Buffalo Municipal Airport (28 nm NE)
 
Loc | Ops | Rwys | IFR | FBO | Links
Com | Nav | Svcs | Stats | Notes
Area around MN62 (Quast Airport)
 
Road maps at: MapQuest Bing Google
 
Aerial photo
No photo
 
Sectional chart

 
Airport distance calculator
Flying to Quast Airport? Find the distance to fly.

From to MN62

Sunrise and sunset
Times for 26-Nov-2022
 Local
(UTC-6)
 Zulu
(UTC)
Morning civil twilight06:5712:57
Sunrise07:3013:30
Sunset16:3922:39
Evening civil twilight17:1223:12

Current date and time
Zulu (UTC)  26-Nov-2022 15:40:33
Local (UTC-6)  26-Nov-2022 09:40:33
 
METAR
KHCD 261515Z AUTO 18005KT 10SM CLR 04/M03 A2970 RMK AO2 T00401026
KGYL 
13nm SE 
261515Z AUTO 18006KT 5SM HZ CLR 04/M03 A2969 RMK AO2 T00361027
KLJF 
16nm NW 
261515Z AUTO 21005KT 10SM CLR 04/M04 A2967 RMK AO2
TAF
KRWF 
36nm SW 
261121Z 2612/2712 18010KT P6SM SKC FM261500 21010KT P6SM SKC FM261800 26012KT P6SM FEW250 FM262000 32012KT P6SM SCT250 FM270400 34011KT P6SM BKN100
KMKT 
42nm SE 
261121Z 2612/2712 20012KT P6SM SKC FM261600 21014G23KT P6SM FEW250 FM262200 32011KT P6SM SCT250 FM270900 35011KT P6SM BKN035
KSTC 
44nm N 
261121Z 2612/2712 20010KT P6SM FEW250 FM262000 32010KT P6SM SCT250 FM270300 33010KT P6SM BKN100
NOTAMs
Click for the latest NOTAMs
NOTAMs are issued by the DoD/FAA and will open in a separate window not controlled by AirNav.

 

 
 

Would you like to see your business listed on this page?

 If your business provides an interesting product or service to pilots, flight crews, aircraft, or users of the Quast Airport, you should consider listing it here.  To start the listing process, click on the button below
 
Add a business
 

Other Pages about Quast Airport

Update a link
 
Copyright © AirNav, LLC. All rights reserved. Privacy Policy  Contact